Regional Weather Roundup
Issued by NWS

Home | Current Version | Previous Version | Text Only | Print | Product List | Glossary Off
Versions: 1 2 3 4 5 6 7 8 9 10 11 12 13 14 15 16 17 18 19 20 21 22 23 24 25 26 27

000
ASUS45 KSLC 041610
RWRUT

UTAH REGIONAL WEATHER ROUNDUP
NATIONAL WEATHER SERVICE SALT LAKE CITY UT
1000 AM MDT WED MAY 04 2016

UTZ001>011-023>025-041700-

NORTHERN UTAH

CITY           SKY/WX    TMP DP  RH WIND       PRES   REMARKS
BRIGHAM CITY   SUNNY     61  41  48 NE3       30.16S
HILL AFB       SUNNY     62  37  40 E13       30.16F
LOGAN          MOSUNNY   56  42  59 N5        30.17F
OGDEN          SUNNY     65  36  34 E3        30.15F
PROVO AIRPORT  MOSUNNY   61  36  39 CALM      30.19F
SALT LAKE CITY PTSUNNY   68  34  28 SE12      30.14F
VERNAL         SUNNY     58  33  39 VRB3      30.27F
WENDOVER       SUNNY     59  41  51 CALM      30.14S
HEBER CITY     MOSUNNY   52  36  54 CALM      30.23F

$$

UTZ012>022-026-027-041700-

SOUTHERN/CENTRAL UTAH

CITY           SKY/WX    TMP DP  RH WIND       PRES   REMARKS
BLANDING       SUNNY     61  32  33 SE3       30.38S
BRYCE CANYON   SUNNY     57  28  33 SE8       30.31F
CEDAR CITY     MOSUNNY   62  38  40 NE7       30.15F
DELTA          MOSUNNY   63  32  31 CALM      30.16F
HANKSVILLE     MOSUNNY   59  34  38 CALM      30.24F
MILFORD        MOSUNNY   66  33  29 N7        30.14F
MOAB/CYNLANDS  SUNNY     67  31  26 E9        30.21S
PRICE          MOSUNNY   60  31  33 S5        30.27S
ST GEORGE      MOSUNNY   70  37  30 N5        30.06F

$$

REGIONAL REPORTS     COLORADO/ARIZONA

CITY           SKY/WX    TMP DP  RH WIND       PRES   REMARKS
CRAIG, CO      SUNNY     59  31  34 NE7       30.30F
GRAND JUNCTION SUNNY     63  30  28 SE9       30.26S
RIFLE          SUNNY     59  30  33 VRB3      30.29F
MONTROSE       SUNNY     62  31  31 N5        30.31F
CORTEZ         SUNNY     63  35  35 VRB5      30.31F
PAGE, AZ       SUNNY     65  33  30 NE5       30.18F
GRAND CANYON   SUNNY     65  30  27 MISG      30.25F
KINGMAN        SUNNY     76  34  21 E17       30.02S
FLAGSTAFF      SUNNY     61  32  33 VRB7      30.27F

$$

REGIONAL REPORTS    NEVADA/IDAHO/WYOMING

CITY           SKY/WX    TMP DP  RH WIND       PRES   REMARKS
LAS VEGAS, NV  PTSUNNY   76  34  21 CALM      29.93S
ELY            CLOUDY    53  33  46 NE3       30.18F
ELKO           MOSUNNY   61  36  39 NE8       30.10F
POCATELLO, ID  MOSUNNY   59  42  53 NE7       30.15F
BURLEY         SUNNY     60  43  53 N6        30.09S
EVANSTON, WY   CLOUDY    59  25  27 SE5       30.27F
ROCK SPRINGS   SUNNY     56  34  43 VRB3      30.29F
KEMMERER         N/A     59  23  25 CALM      30.30F

$$




USA.gov is the U.S. government's official web portal to all federal, state and local government web resources and services.